Location: Fundy National Park
(45.6138°N, 65.0316°W)
Time: 11:51:17
(UTC-04:00)

BlueWalker 3 - Pass Details

Date: 06 December 2022
Orbit: 499 x 517 km, 53.2° (Epoch: 01 February)

Event Time Altitude Azimuth Distance (km) Brightness Sun altitude
Rises 17:10:15 0° 294° (WNW) 2,632 6.2 -6.0°
Maximum altitude 17:16:06 27° 7° (N) 1,002 3.2 -6.9°
Drops below altitude 10° 17:19:30 10° 67° (ENE) 1,728 4.0 -7.4°
Enters shadow 17:19:36 - 68° (ENE) 1,766 4.0 -7.5°
